This is the latest recevied weather packets stored in our database for station/object WP3XM. If no packets are shown the sender has not sent any weather packets the latest 10 day(s).
| Time | Temp. | Humidity | Pressure | Rain* | Wind** | Luminosity | Snow |
|---|---|---|---|---|---|---|---|
| 1777934131 | 27.22° C | 82% | 1016.8 hPa | 0 mm | - | 11 W/m² | - |
| 1777933827 | 27.22° C | 82% | 1016.9 hPa | 0 mm | - | 14 W/m² | - |
| 1777933523 | 27.22° C | 81% | 1017 hPa | 0 mm | - | 17 W/m² | - |
| 1777933221 | 27.22° C | 81% | 1016.8 hPa | 0 mm | - | 22 W/m² | - |
| 1777932918 | 27.22° C | 81% | 1016.7 hPa | 0 mm | - | 29 W/m² | - |
| 1777932615 | 27.78° C | 79% | 1016.6 hPa | 0 mm | - | 43 W/m² | - |
| 1777932311 | 27.78° C | 79% | 1016.7 hPa | 0 mm | - | 54 W/m² | - |
| 1777932009 | 27.78° C | 77% | 1016.7 hPa | 0 mm | - | 79 W/m² | - |
| 1777931705 | 27.78° C | 76% | 1016.6 hPa | 0 mm | - | 65 W/m² | - |
| 1777931403 | 28.33° C | 75% | 1016.4 hPa | 0 mm | - | 112 W/m² | - |
| 1777931098 | 28.33° C | 75% | 1016.2 hPa | 0 mm | - | 127 W/m² | - |
| 1777930795 | 28.33° C | 75% | 1016 hPa | 0 mm | - | 145 W/m² | - |
| 1777930491 | 27.78° C | 76% | 1016.3 hPa | 0 mm | - | 159 W/m² | - |
| 1777930188 | 27.78° C | 76% | 1016.4 hPa | 0 mm | - | 93 W/m² | - |
| 1777929884 | 28.33° C | 76% | 1016.1 hPa | 0 mm | - | 174 W/m² | - |
| 1777929582 | 28.33° C | 77% | 1016.1 hPa | 0 mm | - | 192 W/m² | - |
| 1777929278 | 28.33° C | 78% | 1016.2 hPa | 0 mm | - | 212 W/m² | - |
| 1777928976 | 27.78° C | 79% | 1016.1 hPa | 0 mm | - | 230 W/m² | - |
| 1777928672 | 27.78° C | 81% | 1016.1 hPa | 0 mm | - | 246 W/m² | - |
| 1777928370 | 27.78° C | 81% | 1016.1 hPa | 0 mm | - | 266 W/m² | - |
| 1777928067 | 27.22° C | 82% | 1015.9 hPa | 0 mm | - | 288 W/m² | - |
| 1777927765 | 27.22° C | 83% | 1016.1 hPa | 0 mm | - | 80 W/m² | - |
| 1777927463 | 26.67° C | 84% | 1016.1 hPa | 0 mm | - | 337 W/m² | - |
| 1777927162 | 26.67° C | 84% | 1016.1 hPa | 0 mm | - | 298 W/m² | - |
| 1777926860 | 26.67° C | 84% | 1016.2 hPa | 0 mm | - | 104 W/m² | - |
* Rain latest hour (hover to see other rain measurements)
** Current wind speed in m/s (hover to see current wind gust speed)